| time (UTC) | temp C | wind direction | speed KPH | gust KPH | rain 1hr cm | rain 24hr cm | rain mn cm | humidity % | barometer mb |
| 20260504215010 | 10 | 341 | 1.6 | 8.0 | 0.00 | 0.08 | 0.00 | 84 | 1019.7 |
| 20260504214006 | 10 | 337 | 4.8 | 8.0 | 0.00 | 0.08 | 0.00 | 84 | 1019.4 |
| 20260504213509 | 10 | 15 | 4.8 | 8.0 | 0.00 | 0.08 | 0.00 | 84 | 1019.2 |
| 20260504213019 | 10 | 8 | 0.0 | 4.8 | 0.00 | 0.08 | 0.00 | 84 | 1019.1 |
| 20260504212510 | 10 | 8 | 0.0 | 8.0 | 0.00 | 0.08 | 0.00 | 84 | 1019.2 |
| 20260504212005 | 10 | 352 | 4.8 | 8.0 | 0.00 | 0.08 | 0.00 | 84 | 1019.2 |
| 20260504211507 | 10 | 324 | 4.8 | 6.4 | 0.00 | 0.08 | 0.00 | 84 | 1019.2 |
| 20260504211004 | 10 | 311 | 3.2 | 8.0 | 0.00 | 0.08 | 0.00 | 84 | 1019.1 |
| 20260504210505 | 10 | 304 | 1.6 | 8.0 | 0.00 | 0.08 | 0.00 | 84 | 1019.1 |
| 20260504210008 | 10 | 240 | 0.0 | 6.4 | 0.00 | 0.08 | 0.00 | 84 | 1019.1 |
| 20260504205504 | 10 | 240 | 0.0 | 9.7 | 0.00 | 0.08 | 0.00 | 84 | 1018.9 |
| 20260504204514 | 10 | 359 | 4.8 | 8.0 | 0.00 | 0.08 | 0.00 | 84 | 1018.6 |
| 20260504204008 | 10 | 4 | 3.2 | 9.7 | 0.00 | 0.08 | 0.00 | 84 | 1018.5 |
| 20260504203505 | 10 | 5 | 3.2 | 9.7 | 0.00 | 0.08 | 0.00 | 84 | 1018.4 |
| 20260504203020 | 10 | 13 | 4.8 | 8.0 | 0.00 | 0.08 | 0.00 | 84 | 1018.3 |
| 20260504202505 | 10 | 342 | 4.8 | 9.7 | 0.00 | 0.08 | 0.00 | 84 | 1018.2 |
| 20260504202010 | 10 | 348 | 4.8 | 11.3 | 0.00 | 0.08 | 0.00 | 84 | 1018.1 |
| 20260504201519 | 10 | 324 | 3.2 | 11.3 | 0.00 | 0.08 | 0.00 | 84 | 1018.1 |
| 20260504201003 | 10 | 338 | 3.2 | 9.7 | 0.00 | 0.08 | 0.00 | 83 | 1017.9 |
| 20260504200510 | 10 | 345 | 3.2 | 16.1 | 0.00 | 0.08 | 0.00 | 83 | 1017.9 |
| 20260504200010 | 10 | 14 | 6.4 | 16.1 | 0.00 | 0.08 | 0.00 | 83 | 1017.9 |
| 20260504195506 | 10 | 355 | 6.4 | 9.7 | 0.00 | 0.08 | 0.00 | 83 | 1017.8 |
| 20260504195004 | 10 | 2 | 4.8 | 11.3 | 0.00 | 0.08 | 0.00 | 83 | 1017.7 |
| 20260504194520 | 10 | 5 | 4.8 | 11.3 | 0.00 | 0.08 | 0.00 | 83 | 1017.7 |
| 20260504194009 | 10 | 344 | 4.8 | 11.3 | 0.00 | 0.08 | 0.00 | 83 | 1017.6 |
| 20260504193505 | 10 | 343 | 4.8 | 9.7 | 0.00 | 0.08 | 0.00 | 83 | 1017.7 |
| 20260504193017 | 10 | 341 | 3.2 | 9.7 | 0.00 | 0.08 | 0.00 | 82 | 1017.7 |
| 20260504192508 | 10 | 17 | 3.2 | 9.7 | 0.00 | 0.08 | 0.00 | 82 | 1017.5 |
| 20260504192009 | 10 | 343 | 6.4 | 11.3 | 0.00 | 0.08 | 0.00 | 82 | 1017.6 |
| 20260504191527 | 10 | 348 | 8.0 | 12.9 | 0.00 | 0.08 | 0.00 | 82 | 1017.4 |
| 20260504191009 | 10 | 20 | 6.4 | 12.9 | 0.00 | 0.08 | 0.00 | 81 | 1017.4 |
| 20260504190508 | 10 | 333 | 6.4 | 11.3 | 0.00 | 0.08 | 0.00 | 81 | 1017.3 |
| 20260504190024 | 10 | 8 | 6.4 | 11.3 | 0.00 | 0.08 | 0.00 | 81 | 1017.3 |
| 20260504185007 | 10 | 16 | 4.8 | 11.3 | 0.00 | 0.08 | 0.00 | 81 | 1017.2 |
| 20260504184010 | 10 | 351 | 4.8 | 11.3 | 0.00 | 0.08 | 0.00 | 81 | 1017.0 |
| 20260504183504 | 10 | 13 | 6.4 | 11.3 | 0.00 | 0.08 | 0.00 | 81 | 1016.9 |
| 20260504183014 | 10 | 1 | 6.4 | 12.9 | 0.00 | 0.08 | 0.00 | 81 | 1016.9 |
| 20260504182507 | 10 | 6 | 6.4 | 12.9 | 0.00 | 0.08 | 0.00 | 81 | 1016.8 |
| 20260504182010 | 10 | 6 | 4.8 | 11.3 | 0.00 | 0.08 | 0.00 | 82 | 1016.7 |
| 20260504181519 | 10 | 343 | 4.8 | 11.3 | 0.00 | 0.08 | 0.00 | 82 | 1016.7 |
| 20260504181004 | 10 | 349 | 4.8 | 11.3 | 0.00 | 0.08 | 0.00 | 82 | 1016.7 |
| 20260504180509 | 10 | 3 | 6.4 | 11.3 | 0.00 | 0.08 | 0.00 | 82 | 1016.7 |
| 20260504180019 | 10 | 349 | 3.2 | 11.3 | 0.00 | 0.08 | 0.00 | 82 | 1016.6 |
| 20260504175510 | 10 | 360 | 4.8 | 11.3 | 0.00 | 0.08 | 0.00 | 82 | 1016.6 |
| 20260504174513 | 10 | 346 | 6.4 | 11.3 | 0.00 | 0.08 | 0.00 | 83 | 1016.6 |
| 20260504173506 | 10 | 7 | 6.4 | 11.3 | 0.00 | 0.08 | 0.00 | 83 | 1016.6 |
| 20260504172507 | 10 | 333 | 6.4 | 12.9 | 0.00 | 0.08 | 0.00 | 83 | 1016.5 |
| 20260504172008 | 10 | 334 | 8.0 | 12.9 | 0.00 | 0.08 | 0.00 | 84 | 1016.5 |
| 20260504171011 | 10 | 328 | 6.4 | 14.5 | 0.00 | 0.08 | 0.00 | 84 | 1016.5 |
| 20260504151002 | 10 | 2 | 9.7 | 17.7 | 0.00 | 0.08 | 0.00 | 86 | 1015.8 |
| 20260504150511 | 10 | 349 | 9.7 | 16.1 | 0.00 | 0.08 | 0.00 | 86 | 1015.9 |
| 20260504141010 | 10 | 350 | 11.3 | 19.3 | 0.00 | 0.08 | 0.00 | 85 | 1015.6 |
| 20260504140503 | 10 | 337 | 9.7 | 22.5 | 0.00 | 0.08 | 0.00 | 85 | 1015.6 |
| 20260504110508 | 11 | 337 | 12.9 | 29.0 | 0.00 | 0.08 | 0.08 | 84 | 1014.5 |
| 20260504100503 | 11 | 11 | 14.5 | 33.8 | 0.00 | 0.08 | 0.08 | 84 | 1013.7 |
| 20260504082007 | 11 | 12 | 16.1 | 35.4 | 0.05 | 0.05 | 0.05 | 84 | 1012.3 |
| 20260504081517 | 11 | 358 | 16.1 | 35.4 | 0.05 | 0.05 | 0.05 | 84 | 1012.2 |
| 20260504081010 | 11 | 1 | 16.1 | 35.4 | 0.05 | 0.05 | 0.05 | 83 | 1012.1 |
| 20260504080508 | 11 | 13 | 17.7 | 37.0 | 0.03 | 0.03 | 0.03 | 83 | 1012.1 |
| 20260504050504 | 13 | 351 | 22.5 | 45.1 | 0.00 | 0.00 | 0.00 | 68 | 1010.8 |
| 20260504050012 | 13 | 9 | 20.9 | 35.4 | 0.00 | 0.00 | 0.00 | 68 | 1010.7 |
| 20260504045503 | 13 | 49 | 11.3 | 35.4 | 0.00 | 0.00 | 0.00 | 68 | 1010.8 |
| 20260504045007 | 14 | 343 | 14.5 | 43.5 | 0.00 | 0.00 | 0.00 | 68 | 1010.5 |
| 20260504044514 | 14 | 21 | 17.7 | 43.5 | 0.00 | 0.00 | 0.00 | 66 | 1010.4 |
| 20260504044006 | 15 | 323 | 14.5 | 33.8 | 0.00 | 0.00 | 0.00 | 67 | 1010.4 |
| 20260504043513 | 14 | 14 | 14.5 | 33.8 | 0.00 | 0.00 | 0.00 | 68 | 1010.6 |
| 20260504043011 | 13 | 65 | 19.3 | 35.4 | 0.00 | 0.00 | 0.00 | 67 | 1010.7 |
| 20260504042510 | 13 | 16 | 16.1 | 40.2 | 0.00 | 0.00 | 0.00 | 68 | 1010.8 |
| 20260504042005 | 13 | 349 | 24.1 | 40.2 | 0.00 | 0.00 | 0.00 | 67 | 1010.7 |
| 20260504041508 | 13 | 351 | 17.7 | 43.5 | 0.00 | 0.00 | 0.00 | 67 | 1010.6 |
| 20260504041004 | 13 | 349 | 20.9 | 43.5 | 0.00 | 0.00 | 0.00 | 67 | 1010.7 |
| 20260504040503 | 14 | 7 | 16.1 | 40.2 | 0.00 | 0.00 | 0.00 | 67 | 1010.6 |
| 20260504040008 | 14 | 359 | 22.5 | 43.5 | 0.00 | 0.00 | 0.00 | 67 | 1010.8 |
| 20260504035504 | 13 | 4 | 20.9 | 43.5 | 0.00 | 0.00 | 0.00 | 68 | 1010.7 |
| 20260504035004 | 13 | 16 | 16.1 | 40.2 | 0.00 | 0.00 | 0.00 | 68 | 1010.7 |
| 20260504034507 | 13 | 359 | 22.5 | 40.2 | 0.00 | 0.00 | 0.00 | 67 | 1010.8 |
| 20260504034003 | 13 | 14 | 16.1 | 38.6 | 0.00 | 0.03 | 0.00 | 68 | 1011.0 |
| 20260504033506 | 13 | 320 | 17.7 | 43.5 | 0.00 | 0.03 | 0.00 | 68 | 1010.9 |
| 20260504033003 | 13 | 15 | 22.5 | 46.7 | 0.00 | 0.03 | 0.00 | 68 | 1010.9 |
| 20260504032503 | 13 | 6 | 24.1 | 46.7 | 0.00 | 0.05 | 0.00 | 68 | 1010.9 |
| 20260504032003 | 13 | 6 | 22.5 | 43.5 | 0.00 | 0.08 | 0.00 | 68 | 1011.0 |
| 20260504031503 | 13 | 351 | 22.5 | 53.1 | 0.00 | 0.08 | 0.00 | 67 | 1010.9 |
| 20260504031003 | 13 | 353 | 19.3 | 53.1 | 0.00 | 0.08 | 0.00 | 68 | 1010.9 |
| 20260504030503 | 14 | 4 | 25.7 | 48.3 | 0.00 | 0.10 | 0.00 | 67 | 1010.8 |
| 20260504030005 | 15 | 332 | 30.6 | 48.3 | 0.00 | 0.10 | 0.00 | 65 | 1010.7 |
| 20260504025504 | 14 | 15 | 25.7 | 48.3 | 0.00 | 0.18 | 0.00 | 66 | 1010.8 |
| 20260504025003 | 15 | 352 | 27.4 | 49.9 | 0.00 | 0.18 | 0.00 | 66 | 1010.9 |
| 20260504024509 | 14 | 39 | 25.7 | 51.5 | 0.00 | 0.18 | 0.00 | 66 | 1010.9 |
| 20260504024005 | 15 | 335 | 32.2 | 51.5 | 0.00 | 0.18 | 0.00 | 66 | 1010.9 |
| 20260504023503 | 14 | 358 | 27.4 | 48.3 | 0.00 | 0.18 | 0.00 | 66 | 1011.1 |
| 20260504023014 | 14 | 315 | 33.8 | 53.1 | 0.00 | 0.18 | 0.00 | 65 | 1011.1 |
| 20260504022503 | 14 | 31 | 25.7 | 53.1 | 0.00 | 0.18 | 0.00 | 66 | 1011.1 |
| 20260504022008 | 14 | 9 | 25.7 | 56.3 | 0.00 | 0.18 | 0.00 | 67 | 1011.5 |
| 20260504021513 | 14 | 3 | 32.2 | 56.3 | 0.00 | 0.18 | 0.00 | 66 | 1011.5 |
| 20260504021004 | 14 | 350 | 30.6 | 53.1 | 0.00 | 0.18 | 0.00 | 67 | 1011.7 |
| 20260504020503 | 14 | 326 | 27.4 | 40.2 | 0.00 | 0.20 | 0.00 | 68 | 1011.7 |
| 20260504020004 | 14 | 333 | 20.9 | 46.7 | 0.00 | 0.20 | 0.00 | 70 | 1011.8 |
| 20260504015504 | 13 | 345 | 24.1 | 46.7 | 0.00 | 0.20 | 0.00 | 70 | 1011.8 |
| 20260504015006 | 13 | 346 | 20.9 | 46.7 | 0.00 | 0.20 | 0.00 | 70 | 1011.9 |
| 20260504014508 | 13 | 2 | 19.3 | 37.0 | 0.00 | 0.20 | 0.00 | 73 | 1012.0 |
| 20260504014005 | 13 | 350 | 19.3 | 49.9 | 0.00 | 0.20 | 0.00 | 73 | 1012.2 |
| 20260504013507 | 13 | 335 | 20.9 | 49.9 | 0.00 | 0.20 | 0.00 | 73 | 1012.2 |
| 20260504013008 | 13 | 348 | 25.7 | 48.3 | 0.00 | 0.23 | 0.00 | 75 | 1012.1 |
| 20260504012504 | 13 | 328 | 29.0 | 41.8 | 0.00 | 0.28 | 0.00 | 74 | 1012.1 |
| 20260504012006 | 13 | 343 | 20.9 | 45.1 | 0.00 | 0.36 | 0.00 | 74 | 1012.1 |
| 20260504011503 | 13 | 349 | 19.3 | 45.1 | 0.00 | 0.38 | 0.00 | 76 | 1012.1 |
| 20260504011012 | 13 | 338 | 25.7 | 46.7 | 0.00 | 0.43 | 0.00 | 75 | 1012.1 |
| 20260504010504 | 13 | 339 | 27.4 | 46.7 | 0.00 | 0.48 | 0.00 | 74 | 1011.9 |
| 20260504010023 | 13 | 344 | 16.1 | 49.9 | 0.00 | 0.56 | 0.00 | 75 | 1011.9 |
| 20260504005507 | 13 | 18 | 19.3 | 49.9 | 0.00 | 0.64 | 0.00 | 76 | 1012.0 |
| 20260504005004 | 13 | 8 | 22.5 | 53.1 | 0.00 | 0.69 | 0.00 | 76 | 1011.9 |
| 20260504004507 | 12 | 21 | 22.5 | 53.1 | 0.00 | 0.74 | 0.00 | 76 | 1011.8 |
| 20260504004003 | 12 | 350 | 27.4 | 53.1 | 0.00 | 0.94 | 0.00 | 76 | 1011.9 |
| 20260504003503 | 13 | 359 | 19.3 | 41.8 | 0.00 | 1.02 | 0.00 | 77 | 1012.1 |
| 20260504003010 | 13 | 328 | 17.7 | 41.8 | 0.00 | 1.12 | 0.00 | 78 | 1012.0 |
| 20260504002504 | 12 | 9 | 17.7 | 49.9 | 0.00 | 1.14 | 0.00 | 78 | 1012.1 |
| 20260504002007 | 12 | 343 | 24.1 | 49.9 | 0.00 | 1.19 | 0.00 | 79 | 1012.0 |
| 20260504001515 | 12 | 2 | 22.5 | 49.9 | 0.00 | 1.22 | 0.00 | 78 | 1012.1 |
| 20260504001003 | 12 | 333 | 25.7 | 49.9 | 0.00 | 1.22 | 0.00 | 77 | 1012.2 |
| 20260504000507 | 12 | 351 | 17.7 | 37.0 | 0.00 | 1.24 | 0.00 | 79 | 1012.3 |
| 20260504000010 | 12 | 341 | 22.5 | 41.8 | 0.00 | 1.30 | 0.00 | 78 | 1012.3 |
| 20260503235507 | 12 | 40 | 19.3 | 41.8 | 0.00 | 1.40 | 0.00 | 79 | 1012.2 |
| 20260503235008 | 12 | 6 | 22.5 | 38.6 | 0.00 | 1.47 | 0.00 | 78 | 1011.9 |
| 20260503234508 | 12 | 8 | 20.9 | 43.5 | 0.00 | 1.50 | 0.00 | 79 | 1012.0 |
| 20260503234010 | 11 | 9 | 17.7 | 49.9 | 0.00 | 1.52 | 0.00 | 79 | 1012.1 |
| 20260503233508 | 12 | 358 | 20.9 | 49.9 | 0.00 | 1.55 | 0.00 | 79 | 1012.0 |
| 20260503233009 | 11 | 351 | 22.5 | 40.2 | 0.00 | 1.55 | 0.00 | 80 | 1012.1 |
| 20260503232506 | 11 | 22 | 22.5 | 40.2 | 0.00 | 1.55 | 0.00 | 79 | 1012.3 |
| 20260503232007 | 11 | 17 | 17.7 | 35.4 | 0.00 | 1.55 | 0.00 | 79 | 1012.4 |
| 20260503231514 | 11 | 16 | 20.9 | 35.4 | 0.00 | 1.55 | 0.00 | 79 | 1012.4 |
| 20260503231008 | 11 | 12 | 20.9 | 35.4 | 0.00 | 1.55 | 0.00 | 80 | 1012.7 |
| 20260503230509 | 11 | 22 | 17.7 | 37.0 | 0.00 | 1.55 | 0.00 | 80 | 1012.7 |
| 20260503230019 | 11 | 346 | 19.3 | 38.6 | 0.00 | 1.55 | 0.00 | 80 | 1012.6 |
| 20260503225507 | 11 | 8 | 14.5 | 38.6 | 0.00 | 1.55 | 0.00 | 80 | 1012.6 |
| 20260503225014 | 11 | 10 | 19.3 | 37.0 | 0.00 | 1.55 | 0.00 | 80 | 1012.6 |
| 20260503224527 | 11 | 15 | 19.3 | 33.8 | 0.00 | 1.55 | 0.00 | 79 | 1012.7 |
| 20260503224010 | 12 | 344 | 19.3 | 33.8 | 0.00 | 1.55 | 0.00 | 80 | 1012.7 |
| 20260503223507 | 11 | 49 | 17.7 | 33.8 | 0.00 | 1.55 | 0.00 | 81 | 1012.5 |
| 20260503223018 | 11 | 21 | 17.7 | 33.8 | 0.00 | 1.55 | 0.00 | 81 | 1012.4 |
| 20260503222507 | 11 | 15 | 16.1 | 33.8 | 0.00 | 1.55 | 0.00 | 81 | 1012.3 |
| 20260503222007 | 11 | 16 | 17.7 | 29.0 | 0.00 | 1.55 | 0.00 | 81 | 1012.3 |
| 20260503221516 | 11 | 2 | 12.9 | 35.4 | 0.00 | 1.55 | 0.00 | 82 | 1012.3 |
| 20260503221008 | 11 | 355 | 14.5 | 35.4 | 0.00 | 1.55 | 0.00 | 81 | 1012.4 |
| 20260503220508 | 11 | 347 | 12.9 | 30.6 | 0.00 | 1.55 | 0.00 | 82 | 1012.3 |
| 20260503220021 | 11 | 4 | 11.3 | 30.6 | 0.00 | 1.55 | 0.00 | 82 | 1012.5 |
| 20260503215508 | 11 | 4 | 11.3 | 30.6 | 0.00 | 1.55 | 0.00 | 82 | 1012.6 |